sat.trackr.live / text

‹ back to catalog

STARLINK-2427

NORAD 47837 · 2021-018BC

PAYLOAD ACTIVE UNKNOWN

§ Identity

Operator
Country
US
Launch date
2021-03-11
Launch site
AFETR
Launch vehicle
Mass (kg)
RCS (m²)

Purposes: comms

External: N2YO · Heavens-Above · Gunter

§ Orbital elements

Epoch: 2026-05-24T18:14:22.085376Z

Period
94.01 min
Inclination
53.1592°
Eccentricity
0.0001380
Mean motion
15.31694561 rev/d
Perigee alt
469.8 km
Apogee alt
471.7 km
Semi-major
6,848.9 km
B*
-1.1957e-4
RAAN
245.2151°
Arg perigee
66.0196°
Mean anomaly
294.0950°
Rev number
28,842

§ Raw data

STARLINK-24271 47837U 21018BC  26144.75997784 -.00004073  00000+0 -11957-3 0  99952 47837  53.1592 245.2151 0001380  66.0196 294.0950 15.31694561288420

JSON: /api/v1/satellites/47837 · /tle

For live sub-satellite position, see the globe view (requires WebGL).

§ Visibility from observer

Set your observer location to see the next 7 days of passes ≥ 10°. The values pass through the URL so the page stays shareable.

No JS? Fill the form by hand. The geolocation button needs JavaScript.